This is the latest recevied weather packets stored in our database for station/object WA6TJQ. If no packets are shown the sender has not sent any weather packets the latest 10 day(s).
| Time | Temp. | Humidity | Pressure | Rain* | Wind** | Luminosity | Snow |
|---|---|---|---|---|---|---|---|
| 1777588618 | 17.78° C | 48% | 1008.1 hPa | 0 mm | - | - | - |
| 1777588318 | 17.78° C | 48% | 1008 hPa | 0 mm | - | - | - |
| 1777588018 | 18.33° C | 46% | 1008.2 hPa | 0 mm | - | - | - |
| 1777587718 | 18.33° C | 46% | 1008.3 hPa | 0 mm | - | - | - |
| 1777587418 | 18.89° C | 47% | 1008.2 hPa | 0 mm | - | - | - |
| 1777587118 | 18.89° C | 46% | 1008.2 hPa | 0 mm | - | - | - |
| 1777586817 | 19.44° C | 44% | 1008.5 hPa | 0 mm | - | - | - |
| 1777586517 | 19.44° C | 43% | 1008.3 hPa | 0 mm | - | - | - |
| 1777586217 | 20° C | 44% | 1008.3 hPa | 0 mm | - | - | - |
| 1777585918 | 20° C | 42% | 1008.3 hPa | 0 mm | - | - | - |
| 1777585617 | 20° C | 37% | 1008.4 hPa | 0 mm | - | - | - |
| 1777585317 | 19.44° C | 38% | 1008.3 hPa | 0 mm | - | - | - |
| 1777585017 | 19.44° C | 24% | 1008.5 hPa | 0 mm | - | - | - |
| 1777584717 | 19.44° C | 24% | 1008.4 hPa | 0 mm | - | - | - |
| 1777584417 | 19.44° C | 24% | 1008.4 hPa | 0 mm | - | - | - |
| 1777584117 | 19.44° C | 24% | 1008.4 hPa | 0 mm | - | - | - |
| 1777583817 | 19.44° C | 24% | 1008.6 hPa | 0 mm | - | - | - |
| 1777583517 | 19.44° C | 26% | 1008.6 hPa | 0 mm | - | - | - |
| 1777583217 | 19.44° C | 26% | 1008.6 hPa | 0 mm | - | - | - |
| 1777582917 | 19.44° C | 26% | 1008.6 hPa | 0 mm | - | - | - |
| 1777582617 | 19.44° C | 26% | 1008.5 hPa | 0 mm | - | - | - |
| 1777582317 | 18.89° C | 27% | 1008.5 hPa | 0 mm | - | - | - |
| 1777582017 | 18.89° C | 27% | 1008.6 hPa | 0 mm | - | - | - |
| 1777581717 | 18.89° C | 27% | 1008.6 hPa | 0 mm | - | - | - |
| 1777581417 | 18.89° C | 27% | 1008.6 hPa | 0 mm | - | - | - |
* Rain latest hour (hover to see other rain measurements)
** Current wind speed in m/s (hover to see current wind gust speed)